Tracking 18844 objects as of 21-Nov-2017
HD Live streaming from Space Station
objects crossing your sky now

FENGYUN 1C DEB

Track FENGYUN 1C DEB now!
10-day predictions


NORAD ID: 32209
Int'l Code: 1999-025CVF
Perigee: 852.8 km
Apogee: 1,378.7 km
Inclination: 99.4 °
Period: 107.4 minutes
Semi major axis: 7486 km
RCS: 0.0093 m2 (small)
Launch date: May 10, 1999
Source: People's Republic of China (PRC)
Launch site: Taiyaun Space Center, China (TSC)

Note: This is SATELLITE DEBRIS
aabbcc
Your satellite tracking list
Your tracking list is empty




NASA's NSSDC Master Catalog

Two Line Element Set (TLE):
1 32209U 99025CVF 17323.50645655  .00000195  00000-0  29809-3 0  9999
2 32209  99.4348  67.5234 0351216 126.9986 236.3834 13.40173561505540
Source of the keplerian elements: AFSPC